Location: Kermapucano
(48.0667°N, 3.3000°W)
Time: 19:17:13
(UTC+00:00)

Cosmos 2263 Rocket - Pass Details

Date: 29 November 2020
Orbit: 823 x 848 km, 71.0° (Epoch: 27 January)

Event Time Altitude Azimuth Distance (km) Brightness Sun altitude
Exits shadow 04:42:24 63° 17° (NNE) 948 2.4 -28.9°
Drops below altitude 10° 04:47:09 10° 27° (NNE) 2,483 4.9 -28.1°
Sets 04:49:37 0° 28° (NNE) 3,423 5.7 -27.7°
